SCP
0 0 0 0 0 0 0 0 0 0 0 0 0 0 0 0 0 0 0 0 0 0 0 0 0 0 0 0 0 0 0 0 0 0 0 0 0 0 0 0 0 0 0
0 0 0 0 0 0 0 0 0 0 0 0 0 0 0 0 0 0 0 0 0 0 0 0 0 0 0 0 0 0 0 0 0 0 0 0 0 0 0 0 0 0 0
0 0 0 0 0 0 0 0 0 0 0 0 0 0 0 0 0 0 0 0 0 0 0 0 0 0 0 0 0 0 0 0 0 0 0 0 0 0 0 0 0 0 0
0 0 0 0 0 0 0 0 0 0 0 0 0 0 0 0 0 0 0 0 0 0 0 0 0 0 0 0 0 0 0 0 0 0 0 0 0 0 0 0 0 0 0
0 0 0 0 0 0 0 0 0 0 0 0 0 0 0 0 0 0 0 0 0 0 0 0 0 0 0 0 0 0 0 0 0 0 0 0 0 0 0 0 0 0 0
0 0 0 0 0 0 0 0 0 0 0 0 0 0 0 0 0 0 0 0 0 0 0 0 0 0 0 0 0 0 0 0 0 0 0 0 0 0 0 0 0 0 0
0 0 0 0 0 0 0 0 0 0 0 0 0 0 0 0 0 0 0 0 0 0 0 0 0 0 0 0 0 0 0 0 0 0 0 0 0 0 0 0 0 0 0
0 0 0 0 0 0 0 0 0 0 0 0 0 0 0 0 0 0 0 0 0 0 0 0 0 0 0 0 0 0 0 0 0 0 0 0 0 0 0 0 0 0 0
0 0 0 0 0 0 0 0 0 0 0 0 0 0 0 0 0 0 0 0 0 0 0 0 0 0 0 0 0 0 0 0 0 0 0 0 0 0 0 0 0 0 0
0 0 0 0 0 0 0 0 0 0 0 0 0 0 0 0 0 0 0 0 0 0 0 0 0 0 0 0 0 0 0 0 0 0 0 0 0 0 0 0 0 0 0
0 0 0 0 0 0 0 0 0 0 0 0 0 0 0 0 0 0 0 0 0 0 0 0 0 0 0 0 0 0 0 0 0 0 0 0 0 0 0 0 0 0 0
0 0 0 0 0 0 0 0 0 0 0 0 0 0 0 0 0 0 0 0 0 0 0 0 0 0 0 0 0 0 0 0 0 0 0 0 0 0 0 0 0 0 0
0 0 0 0 0 0 0 0 0 0 0 0 0 0 0 0 0 0 0 0 0 0 0 0 0 0 0 0 0 0 0 0 0 0 0 0 0 0 0 0 0 0 0
0 0 0 0 0 0 0 0 0 0 0 0 0 0 0 0 0 0 0 0 0 0 0 0 0 0 0 0 0 0 0 0 0 0 0 0 0 0 0 0 0 0 0
0 0 0 0 0 0 0 0 0 0 0 0 0 0 0 0 0 0 0 0 0 0 0 0 0 0 0 0 0 0 0 0 0 0 0 0 0 0 0 0 0 0 0
0 0 0 0 0 0 0 0 0 0 0 0 0 0 0 0 0 0 0 0 0 0 0 0 0 0 0 0 0 0 0 0 0 0 0 0 0 0 0 0 0 0 0
0 0 0 0 0 0 0 0 0 0 0 0 0 0 0 0 0 0 0 0 0 0 0 0 0 0 0 0 0 0 0 0 0 0 0 0 0 0 0 0 0 0 0
0 0 0 0 0 0 0 0 0 0 0 0 0 0 0 0 0 0 0 0 0 0 0 0 0 0 0 0 0 0 0 0 0 0 0 0 0 0 0 0 0 0 0
0 0 0 0 0 0 0 0 0 0 0 0 0 0 0 0 0 0 0 0 0 0 0 0 0 0 0 0 0 0 0 0 0 0 0 0 0 0 0 0 0 0 0
0 0 0 0 0 0 0 0 0 0 0 0 0 0 0 0 0 0 0 0 0 0 0 0 0 0 0 0 0 0 0 0 0 0 0 0 0 0 0 0 0 0 0
0 0 0 0 0 0 0 0 0 0 0 0 0 0 0 0 0 0 0 0 0 0 0 0 0 0 0 0 0 0 0 0 0 0 0 0 0 0 0 0 0 0 0
0 0 0 0 0 0 0 0 0 0 0 0 0 0 0 0 0 0 0 0 0 0 0 0 0 0 0 0 0 0 0 0 0 0 0 0 0 0 0 0 0 0 0
0 0 0 0 0 0 0 0 0 0 0 0 0 0 0 0 0 0 0 0 0 0 0 0 0 0 0 0 0 0 0 0 0 0 0 0 0 0 0 0 0 0 0
0 0 0 0 0 0 0 0 0 0 0 0 0 0 0 0 0 0 0 0 0 0 0 0 0 0 0 0 0 0 0 0 0 0 0 0 0 0 0 0 0 0 0
0 0 0 0 0 0 0 0 0 0 0 0 0 0 0 0 0 0 0 0 0 0 0 0 0 0 0 0 0 0 0 0 0 0 0 0 0 0 0 0 0 0 0
0 0 0 0 0 0 0 0 0 0 0 0 0 0 0 0 0 0 0 0 0 0 0 0 0 0 0 0 0 0 0 0 0 0 0 0 0 0 0 0 0 0 0
Wind_Speed
4 3 3 3 4 3 4 4 4 4 5 5 5 6 7 7 6 6 4 7 9 11 11 11 10 10 9 9 8 7 6 6 5 5 4 3 3 2 2 1 1 2 2
4 4 4 4 4 4 4 4 5 5 5 5 6 7 7 8 7 7 7 6 10 12 13 13 13 12 12 12 11 10 9 9 8 7 7 6 5 4 4 3 2 2 1
5 5 5 5 5 5 6 5 6 5 5 6 7 8 7 8 8 8 8 7 7 11 14 16 15 15 14 14 13 13 12 11 11 10 9 8 8 7 6 5 4 3 3
7 5 5 5 5 5 5 5 5 5 6 6 7 6 6 6 9 9 8 8 7 7 10 15 16 16 16 15 15 15 14 14 13 12 12 11 10 9 9 8 7 6 5
7 6 6 6 6 5 5 5 6 6 7 7 7 6 7 7 8 8 10 10 9 8 8 8 12 14 15 16 17 17 16 15 15 14 14 13 13 12 11 10 9 8 7
6 6 5 7 6 5 6 6 7 7 6 6 6 7 8 8 8 8 9 8 7 8 8 8 7 8 13 16 17 17 17 16 16 16 16 15 14 14 13 13 12 10 9
5 6 5 6 6 6 7 8 7 7 6 5 4 6 8 9 9 7 7 6 7 6 7 7 6 6 5 10 13 16 17 17 16 16 17 17 16 15 15 14 13 13 12
4 4 6 5 6 6 7 7 7 5 4 4 4 5 5 6 7 5 5 4 5 4 4 5 5 6 6 5 5 9 13 16 17 17 17 18 18 17 17 16 15 14 14
3 3 5 5 5 5 6 7 7 8 7 6 6 6 5 5 3 3 4 3 3 3 3 3 4 5 5 5 5 5 7 12 16 17 17 17 18 19 18 18 17 16 15
1 2 3 4 4 4 5 6 6 6 7 6 5 6 8 6 5 4 3 3 3 3 3 3 4 4 5 4 4 6 7 10 14 16 17 17 17 17 18 18 18 17 15
1 2 3 3 3 3 5 5 5 6 5 7 6 5 6 6 7 6 6 5 3 2 2 3 3 4 4 4 4 7 8 10 12 14 15 16 15 14 15 16 16 15 13
1 2 3 2 2 3 3 4 4 5 5 6 5 5 5 5 5 6 7 6 5 2 1 2 3 4 4 5 6 10 10 10 11 13 14 14 13 11 10 11 12 12 11
0 2 3 3 2 3 3 3 3 3 3 4 4 4 3 4 4 4 5 5 4 2 1 1 3 4 4 5 6 11 8 10 10 11 11 10 9 7 6 5 6 8 8
1 2 2 2 3 3 3 2 1 2 2 1 1 2 1 2 2 2 2 3 3 3 2 1 3 5 4 5 8 9 6 10 10 9 8 7 5 3 3 3 2 3 4
1 2 2 2 3 3 3 2 2 2 2 3 3 3 3 3 3 3 2 1 2 3 2 1 2 5 5 5 8 6 6 10 10 8 8 8 7 6 5 3 3 3 3
1 1 2 2 3 3 3 3 3 3 4 4 3 4 4 3 3 3 3 2 1 2 1 2 3 4 5 4 7 6 6 9 10 10 10 9 8 8 8 7 6 6 5
2 2 2 3 3 3 3 4 4 4 5 5 5 6 6 5 4 3 3 3 2 1 1 2 2 3 4 5 5 5 6 6 6 12 11 10 9 8 8 7 6 5 4
2 2 3 3 4 4 4 5 5 5 6 6 6 6 6 4 6 4 3 4 3 3 1 1 2 2 3 4 5 5 5 5 5 10 10 10 9 8 7 6 5 4 2
3 3 3 4 4 4 5 5 6 6 7 7 6 6 6 6 6 5 5 4 3 2 2 1 1 1 2 3 3 3 4 4 5 6 7 7 8 7 6 5 4 3 2
3 4 4 4 5 5 5 5 6 6 7 7 7 7 6 6 6 5 4 4 3 3 2 2 2 1 2 2 2 3 3 3 3 4 4 4 5 4 4 4 4 4 4
4 4 5 5 5 4 4 5 5 5 6 6 6 7 7 8 8 6 4 4 4 2 2 2 1 1 1 2 2 3 3 2 2 3 3 3 3 2 2 2 3 5 6
4 4 4 5 5 4 6 6 5 5 5 5 5 5 5 6 8 9 9 8 7 4 3 1 1 1 2 2 2 2 3 3 2 2 4 3 3 3 2 2 5 6 7
5 5 5 5 5 6 7 7 7 5 5 4 4 3 3 3 4 4 5 6 7 8 5 2 2 2 2 3 3 3 3 4 4 4 5 3 2 3 2 2 6 7 7
4 4 4 4 4 5 7 7 7 4 4 3 3 2 2 2 3 2 3 3 3 4 4 3 2 2 2 3 2 2 3 4 4 2 3 3 3 3 3 3 3 5 5
5 4 4 4 4 4 5 6 5 3 3 3 2 1 1 1 3 1 1 1 1 2 3 3 4 4 3 3 3 2 2 3 3 1 1 3 3 5 4 3 1 3 4
5 5 4 4 4 4 5 6 5 2 2 2 1 1 0 2 1 0 1 1 1 1 1 0 1 1 0 1 1 2 2 3 3 2 1 3 3 4 4 2 2 3 4
Wind_Direction
226 224 231 230 238 242 236 243 250 255 259 261 258 262 263 259 259 256 246 214 238 252 257 254 248 238 236 237 235 229 226 225 223 219 214 208 200 187 169 148 123 105 89
234 236 239 237 241 240 246 252 256 263 264 264 266 262 263 263 259 258 261 234 223 238 248 252 251 247 240 237 235 231 228 227 226 223 220 217 215 212 209 203 192 177 152
235 237 246 243 241 241 244 251 259 263 266 265 264 264 264 263 262 261 257 259 244 226 234 245 249 250 246 242 240 235 229 227 226 225 223 221 219 218 218 214 212 210 207
236 241 244 247 248 246 244 246 253 253 254 256 262 264 261 259 262 264 261 253 254 252 233 232 243 248 250 247 244 240 233 227 225 224 224 223 221 220 220 219 219 219 220
235 236 244 250 249 242 242 244 248 251 259 259 262 268 268 265 266 262 261 260 255 255 260 234 229 243 250 251 249 247 242 234 226 223 223 224 222 221 220 220 220 222 225
238 240 245 251 251 244 243 240 244 245 257 270 274 271 270 267 264 261 264 264 259 257 260 266 252 238 237 249 253 253 251 245 235 227 224 223 223 222 221 221 219 221 224
243 239 246 251 244 244 248 250 250 253 252 253 261 269 264 257 257 257 258 265 264 264 265 266 267 270 253 240 248 255 256 254 247 236 229 225 223 223 222 221 222 221 221
252 249 249 251 247 251 254 253 246 247 247 227 241 271 277 269 241 239 249 257 270 271 271 276 276 273 278 275 264 259 263 263 259 251 239 230 225 222 222 222 222 222 222
267 264 265 264 261 256 257 256 250 247 254 243 228 245 265 270 295 229 234 247 263 272 280 293 289 287 285 280 283 271 273 271 268 265 258 246 234 226 224 224 222 221 219
300 296 287 278 272 265 264 265 258 255 258 257 243 237 253 274 272 275 235 238 260 279 295 301 303 304 302 298 297 305 302 286 277 272 269 263 248 236 229 226 225 224 222
21 349 322 297 284 277 274 273 269 260 255 257 256 247 245 249 248 258 269 262 251 253 294 314 317 327 334 326 322 341 329 303 289 282 276 272 261 250 242 234 226 221 220
41 15 349 328 312 300 290 285 278 272 269 266 264 260 256 251 247 249 262 268 269 271 314 344 355 1 359 347 357 357 337 320 306 295 287 280 273 268 265 250 231 220 215
335 5 353 345 338 329 318 307 291 288 289 279 274 274 278 283 287 275 274 278 276 275 258 57 37 19 11 359 4 352 346 341 326 311 300 294 293 290 283 288 247 215 207
10 359 356 357 353 347 339 334 335 344 341 327 334 318 310 348 340 317 294 284 272 255 242 118 64 32 16 7 6 351 358 1 349 338 331 332 342 350 345 331 266 194 187
29 10 7 12 14 9 4 14 39 41 50 46 41 43 49 36 26 21 8 320 276 268 253 72 54 27 11 12 7 3 7 6 5 6 19 32 41 42 36 45 81 127 138
58 44 39 37 38 36 40 57 65 63 72 62 56 63 60 46 43 32 28 21 351 280 258 72 41 12 11 14 15 13 16 13 19 29 42 46 52 52 55 63 76 90 102
77 69 64 62 57 56 60 72 75 77 82 74 66 67 63 53 53 42 37 35 28 337 250 104 57 22 20 18 14 19 22 22 29 38 44 50 54 59 61 66 71 76 76
87 82 85 82 74 68 71 81 83 80 82 80 75 74 69 64 60 50 46 45 39 14 338 137 70 30 28 20 16 23 23 25 27 34 38 42 46 48 50 52 56 65 62
100 94 95 90 84 80 80 81 86 86 82 79 74 72 67 66 62 54 50 47 41 37 32 99 91 47 37 20 14 21 25 22 23 25 31 36 36 35 32 31 34 30 10
114 104 97 93 91 89 88 90 92 92 88 80 72 67 62 60 60 56 50 43 38 49 63 82 85 57 37 17 3 5 9 14 13 14 17 10 8 7 8 2 352 337 316
116 112 109 105 101 96 94 102 101 98 96 90 78 68 60 56 54 50 45 37 33 38 54 69 75 66 39 16 11 1 348 343 14 6 338 343 335 326 324 329 326 317 300
124 117 113 110 104 98 105 104 106 104 98 93 86 75 69 61 59 60 55 48 39 37 42 42 50 45 37 19 5 356 345 335 331 15 331 322 322 314 328 332 340 317 299
134 125 117 114 107 107 111 108 104 103 99 91 88 83 72 62 52 58 63 63 58 51 36 7 29 30 19 6 351 341 349 332 322 344 326 307 322 309 323 318 323 311 297
143 136 131 128 120 116 120 119 115 108 107 101 90 79 75 68 59 41 48 53 54 52 38 22 28 20 3 353 339 319 316 301 290 305 320 298 324 317 317 307 340 324 310
152 150 147 145 141 136 137 142 142 136 129 121 101 59 19 45 78 72 48 47 48 74 68 41 28 25 18 5 340 312 316 310 304 326 358 306 322 320 306 295 295 304 313
161 157 156 164 171 171 163 166 176 172 169 166 172 175 349 353 64 9 309 302 317 9 342 266 244 188 254 73 351 317 314 300 301 305 33 322 318 327 309 298 298 286 274